Вернуться в каталог

MIDAS 4 DEB

LostPO
NORAD 45467·DEBRIS·🇺🇸 United States

Запущен Oct 21, 1961 с Vandenberg Space Force Base

Loading…

Ближайшие Пролёты (ближайшие 24 часа)

TLE

УстаревшееSource: Space-Track

Эпоха: Apr 19, 2025, 15:11 UTC

1 45467U 61028M   25109.63283500 -.00000113  00000-0 -32453-1 0  9992
2 45467  95.8328 190.3350 0905562 151.7473 213.5700  8.70606683304323

Отслеживайте MIDAS 4 DEB в реальном времени с AllMySat

Download on the App Store